64P/Swift-Gehrels (2009)

Japanese version
Home page
Updated on October 3, 2010

---------------------------------------------------------------------

* Profile

* Pictures

* Orbital Elements

Epoch 2009 June 18.0 TT = JDT 2455000.5
T 2009 June 14.35407 TT                                 MPC
q   1.3770083            (2000.0)            P               Q
n   0.10550741     Peri.   96.30608     +0.78771771     -0.60134579
a   4.4355494      Node   300.74276     +0.48558276     +0.73968856
e   0.6895518      Incl.    8.95143     +0.37909127     +0.30206635
P   9.34

* Finding Charts

* Magnitudes Graph

        m1 = 9.5 + 5 log d + 15.0 log r

---------------------------------------------------------------------

The orbital elements are published on M.P.E.C. 2009-O02.
The charts are made with StellaNavigator Ver.2.0 for Windows (AstroArts / ASCII).
The magnitudes graphs are made with Comet for Windows.

---------------------------------------------------------------------

Copyright(C) Seiichi Yoshida (comet@aerith.net). All rights reserved.